Location: Balsareny
(41.8670°N, 1.8830°E)
Time: 15:54:40
(UTC+01:00)

Envisat - Pass Details

Date: 05 December 2021
Orbit: 764 x 766 km, 98.2° (Epoch: 19 January)

Event Time Altitude Azimuth Distance (km) Brightness Sun altitude
Rises 05:55:08 0° 13° (NNE) 3,241 6.3 -23.4°
Reaches altitude 10° 05:57:27 10° 13° (NNE) 2,310 5.5 -23.0°
Maximum altitude 06:02:34 88° 104° (ESE) 771 2.9 -22.0°
Drops below altitude 10° 06:07:38 10° 194° (SSW) 2,293 5.4 -21.1°
Sets 06:09:55 0° 194° (SSW) 3,214 6.2 -20.7°
